Location: Bidart
(43.4376°N, 1.5913°W)
Time: 06:01:29
(UTC+00:00)

H-2A DEB - Pass Details

Date: 20 April 2026
Orbit: 584 x 592 km, 98.2° (Epoch: 15 May)

Event Time Altitude Azimuth Distance (km) Brightness Sun altitude
Exits shadow 02:19:44 17° 322° (NW) 1,515 ? -27.1°
Drops below altitude 10° 02:20:52 10° 330° (NNW) 1,929 ? -27.0°
Sets 02:23:10 0° 339° (NNW) 2,837 ? -26.7°
